RH
37 37 36 34 34 34 34 33 32 31 31 32 31 31 30 29 30 29 29 28 28 28 28 27 26 24 23 22 21 20 19 18 17 17 16 16 16 16 16 16 16 15 15 15 15 15 15 15 16 16 17 18 18 19 19 19 21 24 28 37 46 53 56 57 59 63 65 65 63 61 61 62 59 54 48 44 40 37 36 34 31 27 24 24 21 16
38 36 35 35 36 36 34 32 32 32 31 31 30 30 29 29 29 29 28 28 27 28 27 26 25 24 23 22 21 20 19 19 18 17 17 17 16 17 16 16 16 16 15 15 15 14 15 15 16 16 17 18 18 19 19 20 21 24 30 39 48 55 58 58 61 65 67 66 64 61 62 63 60 55 50 45 40 37 36 34 31 26 22 21 19 15
36 35 37 38 38 36 33 32 32 31 30 29 29 28 28 28 29 29 28 27 27 27 27 25 24 24 23 22 21 21 20 19 18 18 17 17 17 17 17 17 16 16 16 15 15 15 15 15 15 16 17 17 18 19 19 20 21 25 32 41 50 57 59 60 63 67 69 69 66 63 64 67 64 59 54 48 43 40 38 34 30 24 20 20 19 16
39 38 39 38 36 34 32 31 30 29 29 28 28 28 28 28 29 29 28 28 27 27 27 26 24 24 23 22 21 21 21 20 19 18 17 17 17 17 17 17 17 16 16 15 15 15 15 15 15 16 16 17 18 19 19 20 22 26 34 44 52 58 61 62 66 70 72 71 67 64 66 69 67 64 59 52 46 42 38 33 28 23 20 20 20 17
39 37 35 34 34 33 31 29 29 29 28 28 28 28 28 29 28 29 28 28 28 27 26 26 25 24 24 24 22 21 21 20 19 18 17 17 17 18 17 17 17 16 16 16 15 15 15 16 16 16 16 17 18 19 20 20 23 28 36 46 54 59 63 65 69 73 75 73 68 63 66 69 67 63 59 53 48 43 38 33 29 24 21 21 21 18
35 34 33 33 32 31 30 30 30 30 29 29 29 29 29 28 28 28 28 28 28 27 25 26 27 26 24 24 22 22 21 20 19 18 18 18 17 17 17 17 16 16 16 16 16 16 16 16 16 16 17 17 18 19 20 21 25 31 40 49 56 61 65 68 71 75 77 75 68 63 67 70 67 62 58 54 50 45 40 35 30 25 21 21 21 18
35 34 34 33 33 32 32 32 31 30 30 30 29 29 28 28 28 28 29 28 27 26 25 25 28 27 24 24 23 22 22 20 19 19 18 18 17 17 17 17 16 16 16 16 16 16 16 16 17 17 17 18 19 20 21 23 27 34 44 52 59 64 68 71 74 77 79 75 68 65 67 70 68 64 60 56 51 46 40 35 30 25 20 20 20 19
37 37 36 34 33 33 33 33 32 31 31 30 30 29 29 29 29 29 29 28 27 26 26 26 27 27 25 24 24 22 22 21 19 18 18 17 17 17 17 17 16 16 16 16 16 16 16 16 17 17 18 19 20 20 21 24 29 38 48 55 61 66 71 74 76 79 80 75 70 67 67 68 67 65 62 57 52 46 40 36 31 25 20 19 20 19
37 37 36 35 34 34 34 33 33 32 31 31 30 30 30 30 30 29 28 28 27 27 27 25 24 26 26 23 23 22 21 21 19 18 17 17 17 17 16 16 16 16 16 15 15 16 16 16 17 18 19 20 20 21 22 26 33 43 51 57 63 69 74 76 79 81 80 75 70 67 66 67 67 64 61 57 51 46 41 36 31 25 20 19 21 20
37 36 36 36 36 36 35 35 34 33 32 32 31 31 31 30 30 29 28 28 28 27 26 25 24 25 26 24 22 22 21 20 19 17 17 17 17 16 16 16 16 15 15 15 15 15 16 16 17 19 19 20 21 21 23 29 38 47 54 59 64 71 76 79 81 82 81 76 69 67 66 67 67 64 60 55 49 45 40 36 31 25 20 19 21 21
37 37 38 37 37 37 36 36 35 33 33 32 32 32 31 31 30 29 29 28 28 27 26 26 25 24 25 24 21 20 19 18 18 17 16 16 16 16 15 16 15 15 15 15 15 15 16 17 18 19 20 21 21 22 26 33 43 52 56 60 66 73 78 82 83 84 81 76 69 66 65 67 66 63 59 54 48 44 40 36 32 25 20 20 22 21
37 38 39 38 37 37 36 36 35 34 34 33 33 33 32 32 31 31 30 30 30 30 28 26 25 23 23 22 21 19 18 18 17 17 17 16 16 16 16 15 15 15 15 15 15 16 17 18 18 19 20 21 23 25 31 40 49 55 59 63 69 76 82 85 87 85 82 76 69 65 65 65 64 62 59 51 45 43 39 35 31 25 19 19 22 21
38 39 39 38 37 37 37 36 35 35 34 33 32 31 31 30 30 31 31 31 31 31 29 26 24 22 21 21 20 19 18 17 17 17 16 16 16 16 16 16 15 15 15 15 16 16 17 18 18 19 20 22 26 31 39 47 54 59 62 67 72 79 85 88 89 87 84 79 71 66 65 64 63 61 56 48 43 41 37 32 28 23 19 19 22 22
40 40 39 39 38 38 37 35 35 34 33 32 30 29 29 28 28 28 28 27 27 28 27 25 23 21 20 20 19 18 17 17 17 17 16 16 16 16 16 15 15 15 15 15 16 17 17 18 18 20 22 26 33 41 47 53 58 62 66 71 77 82 87 91 92 89 86 82 74 68 65 63 62 60 53 46 42 39 34 29 25 21 18 18 22 22
42 41 40 40 39 38 36 34 33 33 32 31 29 28 28 27 26 26 25 25 24 25 26 25 25 23 20 19 18 17 17 17 17 17 16 16 15 15 15 15 15 15 15 16 16 17 17 18 19 22 26 33 42 50 55 59 62 66 71 76 81 86 90 95 96 91 88 84 76 68 63 62 62 59 52 46 42 38 32 27 23 20 17 18 21 22
42 41 39 39 38 37 36 34 32 31 31 30 29 28 27 26 26 25 25 25 24 24 25 24 25 24 20 17 17 17 16 17 17 16 16 16 15 15 15 15 15 15 16 16 16 17 18 19 22 27 35 44 52 58 61 63 66 70 75 81 85 89 94 98 98 93 88 84 75 66 61 61 61 58 53 49 42 36 30 25 22 19 16 18 21 21
41 40 38 36 36 36 35 34 32 31 30 29 28 27 26 25 25 24 24 24 23 23 24 22 23 24 19 16 16 16 15 16 16 16 15 15 15 15 15 15 15 16 16 16 17 18 20 23 28 37 46 54 60 64 66 68 71 74 79 84 89 92 96 99 98 92 86 79 72 65 61 60 60 58 55 50 42 34 29 24 20 18 16 17 20 22
39 39 37 34 34 33 33 33 33 31 30 29 28 26 25 24 23 23 23 22 21 20 21 20 20 21 18 15 17 16 14 16 16 15 15 15 16 15 15 16 16 16 16 16 18 20 24 30 39 49 57 62 67 69 71 73 75 78 82 86 91 94 98 99 95 88 81 73 68 64 61 59 58 58 55 48 40 33 28 24 20 17 16 17 20 22
36 38 37 35 33 32 31 31 31 31 30 29 28 26 25 23 22 22 20 20 19 17 18 18 19 21 17 14 17 15 14 15 16 16 16 16 16 16 16 17 17 17 17 18 22 26 33 42 51 59 65 69 72 74 76 78 79 81 84 88 91 94 96 94 88 82 75 69 65 63 60 57 57 56 53 46 38 32 28 24 20 17 16 17 20 22
35 36 36 35 33 32 31 30 30 30 29 28 28 27 24 22 21 20 19 18 17 16 17 15 18 24 19 14 17 15 13 15 16 17 18 17 17 16 16 17 18 20 22 24 30 37 46 55 61 67 72 75 78 79 80 81 81 82 85 88 90 92 92 88 81 77 72 66 63 61 57 54 55 54 50 43 35 30 27 24 20 18 16 18 20 22
35 34 35 35 33 32 31 30 29 29 29 28 28 25 23 20 19 18 17 17 16 16 17 13 16 24 20 14 17 16 12 15 17 18 18 18 17 17 16 18 22 26 30 34 42 51 58 64 69 74 78 81 83 83 83 82 82 82 83 86 88 89 87 82 76 72 69 64 60 58 54 52 53 52 45 38 33 28 25 23 20 18 17 18 20 22
34 33 34 36 35 33 32 30 28 28 28 27 26 24 21 18 18 17 16 17 16 16 17 13 15 22 20 15 17 16 13 16 18 17 18 18 17 18 19 23 30 36 40 46 54 62 68 72 75 79 83 85 85 84 83 81 80 79 80 83 85 85 81 75 71 67 64 61 57 54 51 50 50 47 40 33 29 26 24 22 20 17 17 18 19 21
32 32 33 35 35 35 33 30 28 27 27 27 25 23 20 18 18 17 16 16 16 16 16 13 14 19 18 16 17 16 14 17 18 18 19 20 22 24 27 32 42 48 51 56 62 68 73 76 79 82 84 84 83 81 79 78 76 75 77 80 81 79 75 69 66 63 60 57 53 49 46 46 45 41 34 28 26 25 23 22 20 18 17 18 19 20
31 31 31 33 35 36 34 30 27 26 26 26 25 24 21 20 19 18 17 16 16 16 14 12 14 15 16 17 18 16 16 20 22 23 25 28 31 34 35 41 52 59 60 63 67 71 75 77 79 81 81 80 78 76 74 73 72 72 73 75 75 73 69 65 62 59 56 51 46 42 41 41 40 34 28 25 24 23 23 22 20 18 18 18 19 20
31 30 28 28 29 31 31 30 28 26 25 26 27 26 23 20 18 17 16 16 15 14 13 12 13 12 15 19 18 18 21 28 33 36 38 40 42 42 41 46 57 64 64 66 69 72 74 75 76 77 76 75 73 70 68 68 68 69 70 71 70 67 64 61 58 54 49 44 39 37 36 36 33 28 24 22 22 23 23 23 20 18 18 19 19 20
30 29 27 24 23 23 24 25 25 23 24 25 25 25 22 18 17 15 15 15 14 13 13 14 12 11 16 20 22 28 37 44 50 52 52 51 49 45 42 47 57 63 63 66 68 70 71 70 70 71 71 69 67 65 64 64 65 65 66 66 64 61 58 55 51 46 40 36 33 32 32 31 28 25 22 21 21 23 23 23 20 18 17 18 18 19
27 27 26 24 23 23 22 22 21 19 20 22 22 22 20 17 15 14 14 14 13 13 14 15 13 12 19 28 34 44 51 55 57 57 55 54 52 47 43 45 54 58 58 59 60 61 63 64 65 66 65 63 62 61 60 60 60 61 61 60 56 52 50 45 40 35 31 28 28 28 27 26 24 23 21 21 21 22 22 22 21 18 17 17 18 18
24 25 25 24 24 24 23 21 20 18 18 19 20 20 18 16 14 14 14 14 14 13 14 17 18 22 30 38 43 48 50 50 51 52 50 51 50 45 39 41 48 51 50 51 52 54 57 60 60 60 60 59 57 56 55 55 55 54 53 51 47 42 38 34 29 26 24 23 24 24 24 23 23 22 21 21 22 21 21 21 20 18 17 17 17 18
23 23 23 22 22 22 21 20 18 17 17 17 19 19 17 15 14 14 15 16 16 17 20 25 29 33 39 42 43 45 44 41 41 42 42 44 42 37 32 36 42 43 43 45 49 53 55 56 55 55 55 54 52 50 49 48 47 45 44 40 36 32 28 24 22 20 20 20 21 21 21 22 23 23 23 23 23 22 21 20 19 18 17 16 16 17
22 21 20 19 20 20 20 19 17 17 17 17 20 21 19 17 17 19 23 25 25 27 29 31 32 36 41 41 39 41 38 34 33 33 36 39 38 33 30 33 37 38 40 44 49 51 52 50 50 49 49 47 44 42 41 39 37 35 34 31 26 23 21 19 18 18 18 19 19 20 20 21 23 25 27 28 26 23 21 20 18 17 16 15 15 16
20 19 19 18 18 18 19 19 19 19 20 25 32 34 31 30 31 33 34 34 32 31 32 32 31 34 38 37 34 33 30 28 28 29 33 37 35 31 29 32 35 37 40 43 45 45 44 43 42 41 40 38 35 33 31 30 29 28 26 23 20 18 17 17 17 18 18 18 18 19 20 21 24 27 31 32 28 26 23 20 19 18 15 14 15 15
18 18 18 17 18 21 24 27 29 31 35 41 47 46 41 39 38 36 34 33 32 31 30 29 27 29 31 29 27 25 24 25 26 26 30 33 32 30 30 33 35 37 37 37 36 36 35 35 34 33 32 30 28 26 24 23 23 23 21 19 17 16 16 17 18 18 18 17 18 18 19 21 24 28 34 34 30 28 25 21 20 18 15 14 14 15
21 23 25 26 28 33 37 38 38 39 42 44 45 42 38 35 33 31 30 32 32 29 26 24 24 24 24 21 19 18 20 22 23 23 26 29 29 29 31 32 31 31 31 29 28 28 29 29 29 27 26 24 22 21 20 20 20 20 18 17 16 16 17 17 18 18 18 17 17 18 20 21 24 30 35 35 31 29 25 22 20 18 15 13 13 14
35 37 39 38 37 38 39 37 35 34 36 38 37 34 31 28 26 25 26 30 31 27 22 21 21 20 19 17 15 15 16 18 20 22 23 24 24 25 26 26 25 24 23 23 23 25 26 26 25 23 21 20 19 18 17 19 20 19 17 16 16 17 17 17 17 17 17 17 18 19 20 22 25 31 36 34 31 29 26 22 20 18 15 14 13 14
44 42 40 38 35 34 33 31 29 29 32 35 32 28 26 24 22 20 20 25 27 23 17 16 17 16 15 14 14 14 14 16 19 20 20 19 19 19 19 20 20 19 20 21 22 23 23 22 21 20 19 18 17 16 17 18 19 17 15 15 15 16 16 16 16 17 17 17 18 20 22 24 27 32 35 33 29 27 25 21 18 17 16 15 15 15
37 36 34 32 30 30 28 26 23 23 25 28 26 22 21 20 17 15 15 18 21 18 13 12 11 11 11 12 12 12 11 13 16 17 16 15 14 14 15 16 16 18 19 19 20 19 19 18 18 18 17 16 15 14 15 16 16 15 14 15 15 15 16 15 16 17 17 18 19 21 24 26 28 33 34 31 27 25 22 19 17 17 17 17 17 15
29 28 26 25 23 22 21 19 18 17 17 19 17 15 15 14 12 11 11 12 14 12 9 8 8 8 8 8 9 9 9 9 12 14 13 12 12 13 14 15 15 16 17 17 17 17 17 17 17 17 16 15 14 13 13 14 14 14 14 14 15 15 15 15 16 17 18 19 20 22 26 28 29 33 34 31 26 23 19 17 17 17 18 19 19 15
20 18 17 16 15 14 13 12 11 11 11 11 11 10 9 9 8 8 8 8 8 8 7 7 6 6 6 7 7 7 7 8 10 13 13 13 13 14 14 15 15 15 15 16 16 17 18 17 17 17 16 16 15 14 14 14 14 14 14 15 15 15 15 15 17 18 19 19 20 23 27 29 30 34 35 31 25 20 17 16 16 17 19 21 21 16
12 11 10 10 9 8 8 8 8 8 8 8 8 7 6 6 7 6 6 6 7 7 6 6 6 5 5 6 6 6 7 7 9 12 13 13 14 14 13 14 15 15 16 16 16 17 18 18 18 18 17 15 15 14 15 15 14 14 15 15 15 15 15 16 18 18 18 20 22 25 28 30 32 34 34 31 25 19 16 15 15 17 20 22 21 17
9 8 7 7 7 7 8 8 8 9 9 9 8 7 7 7 7 6 6 6 7 8 8 7 7 6 6 7 7 8 8 8 8 9 11 12 12 13 13 12 13 14 15 16 17 18 19 19 18 17 16 15 15 15 15 15 15 16 16 16 15 15 15 16 17 17 19 22 25 28 30 32 34 34 33 31 26 18 14 13 13 15 19 22 21 17
8 8 8 7 8 8 8 8 9 10 11 10 9 9 9 9 8 7 7 8 8 9 10 10 8 8 8 8 8 8 9 9 8 8 9 10 10 11 12 13 13 14 15 16 17 19 19 20 19 17 16 16 16 16 16 16 17 17 16 16 16 16 15 16 17 17 19 23 27 29 31 33 34 33 32 29 25 18 14 13 13 14 17 19 19 17
9 9 9 9 9 9 8 9 10 10 10 10 10 10 10 9 9 8 8 9 9 9 10 10 9 8 8 9 9 8 8 9 9 9 9 9 10 11 12 13 14 15 16 16 16 17 18 19 19 18 17 16 16 16 17 17 18 18 17 16 16 16 15 16 17 18 20 23 26 27 29 30 31 31 29 26 23 19 15 13 12 13 15 17 17 17
12 11 11 10 9 9 9 9 9 9 8 9 9 9 9 8 8 8 8 9 9 8 8 9 9 8 7 8 9 9 9 9 10 10 11 11 11 11 12 13 13 14 15 15 15 15 16 17 17 18 17 16 16 16 17 18 18 18 17 17 16 16 15 16 17 18 20 22 24 24 26 27 29 29 26 23 20 18 16 14 11 12 14 15 17 17
16 14 13 12 11 10 10 10 9 9 8 8 8 8 8 8 8 7 8 8 8 8 8 8 9 8 7 7 8 9 9 10 10 11 12 12 12 12 12 12 13 13 13 14 14 14 14 15 16 16 16 16 16 17 17 18 18 18 18 18 17 16 16 16 17 18 19 21 22 22 24 25 27 28 25 21 19 18 17 15 12 12 14 15 16 17
22 19 17 16 14 13 13 13 11 11 12 11 10 10 9 9 9 8 8 8 7 8 8 8 9 9 9 8 9 9 10 10 10 11 12 12 12 12 12 12 12 12 12 12 13 13 13 13 14 14 15 16 15 16 17 17 17 18 18 18 18 17 17 17 17 17 18 19 20 21 23 24 25 24 23 20 18 18 17 16 14 13 14 14 15 17
26 24 23 21 18 17 17 16 14 15 15 13 12 11 10 9 9 9 8 9 8 9 9 9 9 10 10 10 10 11 11 11 11 12 13 13 13 13 13 13 13 12 12 11 12 12 12 12 13 13 14 14 14 15 16 16 16 17 17 18 18 17 17 17 17 17 18 19 20 21 22 22 21 21 20 18 17 17 17 16 15 14 14 14 14 16
25 26 25 23 21 20 19 17 17 17 16 14 13 12 11 10 10 10 9 9 9 9 10 10 10 11 12 12 11 12 13 13 13 13 14 15 15 15 14 14 13 13 12 11 11 11 11 11 12 12 13 13 12 13 14 14 15 15 16 16 16 16 17 17 17 17 18 19 21 21 20 19 18 19 18 16 15 16 16 15 15 14 14 14 14 14
23 23 22 22 22 21 20 19 18 17 16 13 11 11 11 10 9 9 9 9 10 10 11 11 12 12 12 12 12 12 13 14 14 13 14 15 15 15 14 14 13 13 12 12 11 11 11 11 11 11 12 12 12 12 13 13 13 13 13 14 14 15 16 16 16 17 17 18 20 20 19 18 17 16 16 15 14 14 14 14 14 14 14 14 13 14
20 20 20 19 19 20 20 18 17 17 17 15 12 11 11 10 10 10 9 9 9 9 10 11 11 11 11 11 11 11 11 12 12 11 12 13 13 13 13 13 13 13 12 12 12 11 11 11 10 10 11 11 11 12 12 11 11 11 11 12 13 13 14 15 15 16 16 16 17 17 17 16 15 14 14 14 13 13 13 14 14 14 14 14 13 13
18 18 17 17 17 17 18 17 16 16 16 15 13 12 10 9 9 9 9 8 8 8 8 8 9 9 10 10 10 9 9 9 10 10 10 11 11 11 12 12 12 12 12 12 12 11 11 10 9 9 10 10 10 11 10 10 9 9 10 11 11 12 13 13 13 14 14 14 15 15 15 14 13 13 14 13 13 13 13 14 14 14 14 14 13 13
16 16 16 16 16 16 17 17 16 16 15 14 14 13 11 9 8 8 8 7 7 7 7 6 6 7 7 8 8 8 7 7 8 8 9 10 10 11 10 11 11 11 11 11 11 11 11 10 9 9 9 9 9 9 9 9 8 8 9 10 10 11 11 11 12 12 12 13 13 13 13 12 12 13 13 13 13 13 13 14 14 15 15 14 13 13
Wind_Speed
10 12 14 15 17 19 20 21 22 23 24 26 28 29 31 32 34 35 37 38 39 41 43 43 44 47 48 50 52 53 54 55 56 57 58 59 60 61 61 62 62 63 64 64 64 64 64 64 64 64 65 65 66 66 66 66 67 68 70 72 74 77 81 84 87 90 92 95 98 101 103 104 105 107 108 108 109 109 109 109 108 106 103 100 99 98
12 14 16 18 20 22 23 24 24 25 27 28 30 32 33 34 36 37 38 40 41 42 44 45 46 48 50 51 53 55 56 57 58 59 60 62 63 63 64 64 65 65 66 66 66 66 65 65 65 66 66 67 67 67 67 68 68 70 72 74 76 79 82 86 89 91 94 97 100 102 104 106 107 108 109 110 111 111 110 110 109 107 103 100 98 98
15 17 19 21 22 24 25 25 26 28 29 31 33 34 36 37 39 40 41 42 43 43 45 48 48 49 52 54 54 56 57 59 60 61 62 63 64 65 66 66 67 67 68 68 69 68 68 67 67 68 68 68 69 69 69 69 70 71 73 75 78 81 84 87 90 93 95 98 101 103 105 107 108 109 110 111 112 112 112 111 109 107 104 100 99 98
19 20 21 22 23 25 26 27 29 30 32 34 35 37 38 40 41 42 43 43 44 45 46 49 52 51 53 56 57 57 59 60 61 63 64 65 66 67 68 68 68 69 69 70 70 71 71 70 70 70 70 70 70 71 71 71 72 73 74 77 79 82 85 89 91 94 96 99 101 104 106 108 109 110 111 113 114 114 113 112 111 108 105 101 99 98
21 21 22 23 25 27 28 30 31 33 35 36 38 39 40 41 42 43 45 46 46 47 47 49 53 54 53 56 59 59 60 61 62 64 65 66 67 68 69 70 70 70 71 71 72 72 72 73 73 73 73 73 72 73 73 73 73 74 76 78 81 84 87 90 93 95 97 100 102 104 106 108 110 111 112 113 114 115 115 114 112 110 106 102 99 98
22 22 23 25 27 29 31 33 34 36 37 38 39 41 42 42 44 45 46 48 48 49 50 48 52 57 55 55 59 61 63 64 64 65 67 68 69 69 70 71 72 72 72 72 73 73 74 74 75 75 75 75 74 75 75 75 75 76 78 80 83 85 88 91 94 96 98 100 103 105 106 108 110 112 113 114 115 116 116 115 113 111 107 102 99 97
24 25 27 28 30 32 34 35 36 38 39 40 41 42 43 44 45 46 47 49 50 51 52 51 51 57 59 57 59 62 64 67 67 67 68 69 70 71 71 72 73 73 74 74 74 74 75 75 76 77 77 77 77 77 77 77 77 78 80 82 85 87 90 92 95 97 99 101 103 105 107 108 110 112 114 115 115 116 116 115 113 111 107 102 98 97
27 28 30 31 32 34 35 37 38 39 40 41 42 43 44 46 47 48 49 51 53 53 54 55 54 56 60 59 59 62 65 67 69 69 70 70 71 72 73 73 74 74 74 75 75 75 76 76 77 78 78 78 78 78 78 78 78 80 82 84 86 89 91 94 96 98 100 102 104 106 107 109 111 112 114 115 116 117 116 115 114 111 107 102 98 97
29 31 32 34 35 36 38 39 40 41 42 43 44 45 46 47 48 50 51 52 54 56 56 58 57 56 60 62 60 62 64 67 69 71 71 72 73 73 74 74 75 75 75 75 76 76 77 77 78 79 79 80 80 80 80 80 80 81 84 86 88 90 93 95 98 100 102 103 105 107 108 110 111 113 114 115 116 117 117 116 114 111 107 103 99 97
31 33 35 36 38 39 40 41 42 42 44 45 46 47 48 49 50 51 52 53 55 58 58 60 61 59 59 63 63 62 64 66 69 71 72 73 74 75 75 75 76 76 76 76 77 77 78 78 79 79 80 81 81 81 81 81 82 83 86 88 90 92 94 97 99 101 103 105 106 108 109 110 112 113 115 116 117 117 117 116 114 111 107 102 98 96
34 35 37 38 39 40 41 42 44 44 45 47 48 49 50 51 52 53 54 55 57 59 61 62 64 64 62 63 65 65 65 67 69 71 73 74 76 76 77 77 77 77 77 77 78 78 79 79 80 80 81 82 82 82 82 82 83 86 88 90 92 94 96 98 101 103 104 106 107 109 110 111 113 114 116 116 117 117 117 115 113 110 106 102 97 95
36 38 39 40 41 42 43 44 45 46 47 49 49 50 51 52 53 55 56 57 58 61 64 65 66 67 66 65 67 68 68 69 70 72 74 75 77 78 79 79 78 78 78 78 79 79 80 80 80 81 82 82 83 83 84 84 86 88 90 93 94 96 98 100 102 104 106 107 109 110 111 112 114 115 116 117 117 117 116 114 112 109 105 100 96 94
39 40 41 42 43 44 45 46 47 48 49 51 51 52 53 53 53 55 56 57 59 61 65 67 68 69 69 68 69 70 71 72 73 74 75 76 78 79 80 80 79 79 79 79 79 80 80 81 81 82 83 83 84 84 85 86 88 90 93 95 96 98 100 101 103 105 107 109 110 111 113 114 115 116 117 118 118 117 116 114 111 108 104 99 95 93
41 42 43 44 45 46 47 48 49 50 52 53 54 54 55 55 55 55 56 57 58 60 64 68 70 72 71 70 70 71 72 73 75 76 77 78 78 79 80 80 80 80 80 80 80 80 81 81 82 83 83 84 85 86 87 89 91 93 95 97 98 100 101 103 105 107 109 110 111 113 114 115 116 117 118 119 118 118 116 113 110 107 103 98 94 92
44 45 46 47 48 49 50 51 51 52 53 55 56 57 57 58 59 59 59 59 59 59 62 67 71 75 74 72 71 72 73 75 76 77 79 79 79 78 79 81 81 81 81 80 80 81 81 82 83 83 84 85 86 87 89 91 93 95 96 98 99 101 103 104 106 108 110 111 113 114 115 116 117 118 119 119 119 118 116 113 110 106 102 98 93 91
47 48 49 49 50 52 53 54 54 55 56 57 59 59 59 60 61 62 62 63 63 61 62 65 69 77 79 74 73 74 74 76 77 78 79 80 80 79 80 81 82 82 81 81 81 82 82 83 83 84 85 86 88 89 91 93 95 97 98 99 101 102 104 105 107 109 110 112 113 115 116 116 117 118 119 120 119 117 115 112 109 106 102 97 92 90
50 51 52 52 52 54 56 57 58 58 59 59 61 62 62 63 63 64 64 65 67 65 65 65 67 77 81 76 76 76 75 77 79 79 80 81 81 81 81 82 82 83 82 82 82 83 83 84 84 85 87 88 90 91 93 95 97 98 99 101 102 103 105 106 107 109 111 113 114 115 116 117 118 118 119 119 119 117 115 112 109 105 101 96 91 89
51 54 56 56 55 56 57 59 61 62 62 63 64 65 66 66 66 66 66 67 69 68 68 67 67 76 82 78 77 78 76 78 81 82 82 83 83 82 81 82 83 84 84 83 84 84 84 85 86 87 89 90 92 94 95 97 98 100 101 102 103 104 105 107 108 110 111 113 115 116 117 117 117 118 119 119 118 116 114 111 108 104 100 95 91 88
53 55 59 60 59 59 60 61 62 64 65 65 67 68 70 70 69 70 69 70 71 70 71 69 67 76 84 81 80 80 77 79 83 84 85 85 85 84 82 83 84 85 86 85 86 86 86 87 88 89 91 93 95 96 97 98 100 101 102 103 104 105 106 107 109 111 112 114 116 117 117 117 118 118 118 118 117 115 112 110 106 103 99 94 90 87
57 57 60 63 63 62 63 64 64 66 67 67 69 71 73 74 73 73 73 73 74 73 75 73 68 76 86 84 84 84 80 81 85 87 88 87 87 86 84 84 85 87 88 87 87 88 89 90 91 92 94 96 97 99 99 100 101 102 103 104 105 106 107 109 110 112 113 114 116 117 118 118 118 118 118 117 115 113 110 108 104 101 98 93 89 86
60 60 61 64 66 66 67 68 67 68 69 70 71 73 76 77 77 77 76 76 77 76 79 78 70 76 86 87 88 88 84 85 89 89 89 89 88 88 87 86 87 89 90 89 90 91 92 93 94 95 97 98 100 101 101 102 103 104 105 106 107 108 109 110 112 113 114 116 117 118 118 118 117 117 116 115 113 111 108 105 102 99 96 92 87 85
62 63 63 65 67 69 70 72 72 72 73 73 74 76 78 79 81 81 79 79 79 78 82 80 73 77 85 88 90 89 86 87 91 91 91 90 90 90 89 88 89 91 92 92 93 94 95 96 97 97 99 100 102 103 103 104 105 106 106 107 108 109 111 112 113 115 116 117 118 118 118 118 117 116 114 112 110 108 106 103 100 98 94 90 86 84
65 65 65 66 68 70 72 74 75 76 76 77 78 79 81 82 84 85 84 82 81 81 83 81 77 77 82 87 89 88 86 88 92 93 93 92 92 92 91 90 91 94 96 96 97 97 98 99 99 100 101 102 103 105 105 106 106 107 108 109 110 111 112 114 115 116 117 118 119 119 118 117 116 114 112 110 108 106 104 101 99 96 93 89 85 83
68 68 68 68 69 71 73 76 78 79 80 81 82 83 84 85 87 88 88 86 84 83 83 81 80 78 80 86 88 86 87 89 92 95 95 93 93 93 93 93 94 97 98 99 100 100 100 101 102 102 103 104 105 106 107 107 108 109 110 111 112 112 114 115 116 117 118 119 118 118 117 116 114 112 110 107 105 103 102 99 97 95 91 87 84 82
70 71 72 72 71 71 73 75 78 79 81 82 84 86 86 87 89 89 89 87 86 85 82 82 82 78 79 85 87 86 89 90 92 95 97 96 96 96 96 96 97 99 100 101 102 102 102 103 104 105 105 106 107 108 108 109 110 111 111 112 113 114 115 116 117 117 118 118 117 116 115 113 111 109 107 105 103 101 99 98 96 93 89 86 83 81
73 74 76 77 77 76 75 76 78 78 79 82 84 86 87 88 89 89 89 88 88 86 82 83 83 78 79 85 86 87 91 91 92 96 97 98 98 99 99 98 99 101 101 102 103 103 104 105 106 107 107 108 109 109 110 110 111 112 113 114 114 115 116 116 116 117 117 116 116 114 113 111 108 106 104 102 100 98 97 96 94 92 88 85 82 81
76 77 78 80 80 81 81 82 83 82 82 84 87 89 90 90 90 90 90 90 90 88 84 84 84 81 81 85 85 87 92 92 93 96 98 99 99 100 101 100 100 102 103 103 104 104 105 106 107 108 109 110 110 111 111 112 113 114 114 115 115 115 116 116 115 115 114 113 112 111 109 108 106 104 102 100 98 96 95 94 93 91 88 84 81 80
79 79 81 82 82 83 85 86 86 87 86 88 90 93 94 93 92 92 91 91 92 91 87 87 87 86 86 88 89 91 95 95 96 99 100 100 101 101 101 100 101 103 104 104 105 106 107 108 109 110 111 111 112 112 113 113 114 115 115 115 115 115 114 114 113 112 111 110 109 107 106 104 103 101 100 98 97 95 93 92 91 90 87 83 80 79
83 83 83 84 83 85 88 88 89 89 89 90 93 96 96 94 93 92 92 93 94 93 91 91 91 90 91 93 94 96 98 99 100 102 103 103 103 104 103 102 103 104 105 105 107 108 109 110 110 111 112 113 113 113 114 114 114 115 115 115 114 113 112 111 110 109 107 106 105 103 102 101 100 99 98 97 95 94 92 91 90 88 86 83 80 78
87 87 87 87 86 87 90 92 91 90 90 91 94 98 97 95 94 94 94 95 95 95 95 95 94 94 95 97 98 100 101 102 102 103 105 106 107 107 105 104 105 106 107 107 108 109 110 111 112 112 113 113 113 113 114 114 114 113 113 112 111 110 109 108 107 105 104 103 101 100 99 98 97 96 95 95 94 93 92 91 90 88 85 82 80 78
91 91 91 91 89 88 90 92 92 91 90 92 95 99 99 97 96 97 98 98 98 97 97 98 97 96 97 99 101 102 103 103 104 105 107 109 110 109 108 108 108 109 109 109 109 110 111 112 112 112 113 113 112 112 112 112 111 111 110 109 107 106 106 105 104 103 101 100 98 97 96 94 93 93 93 92 92 92 92 91 89 88 85 82 80 77
93 93 93 92 90 88 90 92 91 90 91 94 99 103 101 100 100 100 100 100 100 99 99 99 98 97 99 101 101 102 104 105 105 106 108 111 111 111 110 110 111 110 110 109 109 110 110 111 111 111 111 111 111 110 110 109 108 107 106 105 104 103 102 102 101 100 99 97 96 95 93 91 91 91 90 90 89 90 90 90 88 87 85 82 79 77
92 93 93 93 92 91 92 94 93 92 92 96 103 107 105 103 103 102 101 102 102 102 100 100 99 99 100 101 102 103 104 104 104 106 109 112 112 110 110 111 111 111 110 109 109 109 109 110 110 110 109 109 108 108 107 106 105 104 103 102 101 100 100 99 98 98 96 95 94 92 91 89 89 89 88 87 87 88 89 88 87 86 84 82 79 76
94 95 96 98 97 96 97 98 97 96 95 98 105 110 109 106 105 103 102 103 105 104 102 101 101 101 101 102 102 104 103 103 103 105 108 111 111 110 109 109 110 109 108 108 107 107 108 108 108 108 107 106 106 105 103 103 102 101 100 99 98 97 97 96 96 95 94 92 91 90 89 88 87 87 87 86 86 86 87 86 85 84 83 82 79 76
98 100 101 102 102 101 101 101 99 98 97 100 106 111 112 110 108 105 103 103 106 106 102 100 100 100 100 102 103 104 103 102 102 103 106 108 108 107 106 106 107 106 106 106 105 104 105 104 105 105 104 104 103 101 99 98 98 98 97 96 96 95 95 94 93 93 91 90 89 88 87 86 85 85 85 84 84 84 85 84 83 82 82 81 79 76
101 102 103 103 104 104 104 103 102 100 98 100 106 111 112 111 109 106 102 100 103 104 100 97 96 96 97 98 100 100 100 99 98 99 102 103 103 103 103 103 103 104 103 103 102 101 101 101 101 101 101 100 99 96 95 94 95 95 94 94 93 92 92 92 91 91 90 88 87 87 86 85 84 84 84 83 83 83 83 82 81 80 80 81 79 76
102 103 103 104 104 105 104 103 101 99 96 98 103 107 108 107 105 103 99 95 95 97 95 92 90 90 90 92 93 94 94 93 92 94 97 99 99 100 101 101 101 100 100 100 99 99 98 98 98 98 97 97 96 94 92 92 92 93 92 92 91 90 90 90 89 89 88 87 86 85 84 83 83 83 83 82 82 82 81 80 79 79 79 80 79 76
102 102 102 101 101 101 101 99 96 93 90 92 97 100 100 100 99 98 96 91 89 90 89 87 86 85 85 86 87 88 89 89 88 89 92 94 95 96 97 97 97 97 97 96 95 95 95 95 94 95 94 94 93 92 91 91 91 91 91 90 90 89 88 88 88 87 86 85 84 84 83 82 82 82 82 82 82 81 80 79 78 78 78 78 78 77
99 98 98 97 96 96 96 94 92 89 87 88 91 92 93 93 93 94 92 88 85 86 86 84 83 83 82 82 83 84 86 86 85 85 87 89 90 91 91 91 91 91 92 92 91 90 90 91 91 92 91 90 90 89 90 90 90 90 90 89 88 87 86 86 86 86 85 84 83 82 81 80 80 80 81 81 81 80 79 77 76 76 76 77 78 77
97 97 95 94 93 93 92 90 88 87 87 88 88 87 88 89 89 90 88 85 83 84 84 82 81 80 79 79 80 81 83 84 83 82 83 84 85 86 87 86 86 86 86 87 87 87 87 88 89 88 88 88 88 88 88 89 89 89 89 88 86 85 84 85 85 84 83 81 81 80 80 79 79 79 79 80 80 80 78 76 74 74 74 76 77 77
97 96 95 94 93 93 91 89 88 87 87 87 86 85 86 86 86 85 83 82 83 83 83 82 81 80 79 78 78 79 80 82 82 81 81 82 82 83 84 84 84 84 84 84 84 83 84 85 86 86 86 86 86 86 87 87 87 88 87 86 84 83 82 83 83 82 81 79 78 79 78 78 78 78 78 78 79 79 77 75 73 72 73 74 75 76
98 97 97 96 95 94 92 91 91 89 87 86 86 85 85 85 84 82 80 80 82 83 82 81 81 80 78 78 78 78 78 79 81 81 81 82 82 82 82 82 82 83 83 82 82 81 81 82 83 84 84 84 84 84 84 85 85 85 85 84 83 81 80 80 80 80 79 78 77 77 77 77 77 77 77 77 78 78 77 74 72 71 72 73 74 75
102 101 99 99 98 96 95 94 94 92 89 87 86 85 84 84 83 81 79 79 81 82 82 82 81 80 79 77 77 78 78 78 79 80 81 81 81 81 81 81 81 80 80 80 80 79 79 79 80 82 82 82 82 82 82 82 83 83 83 82 81 79 77 77 77 78 78 76 75 75 75 75 75 76 76 76 76 77 76 74 72 71 71 72 73 74
103 103 102 100 100 99 98 98 97 94 92 92 91 89 86 84 83 82 81 80 80 81 82 81 81 81 80 77 76 76 76 76 77 78 78 79 79 79 79 79 79 79 78 79 79 78 78 78 79 80 81 82 82 81 81 81 81 81 81 80 79 77 76 75 75 76 76 75 74 74 74 74 74 75 75 75 76 76 76 75 73 71 71 71 71 72
100 103 103 101 101 101 101 101 99 97 95 96 96 94 90 87 86 85 84 83 82 81 81 81 81 82 81 79 77 77 76 75 74 75 76 76 76 77 77 78 78 78 78 78 78 78 78 78 79 79 80 81 81 80 80 80 79 79 78 78 77 75 74 73 73 74 74 74 73 73 73 74 73 74 74 75 75 75 75 75 73 71 70 70 70 71
95 97 99 99 100 101 101 102 101 99 97 98 97 96 94 91 89 87 86 85 84 83 83 83 82 82 82 82 80 79 79 78 76 75 76 76 76 76 77 77 78 79 79 79 78 78 79 79 79 79 80 81 81 80 79 79 78 77 76 75 75 74 73 72 72 73 73 73 73 72 73 73 73 73 74 74 74 74 74 74 73 71 69 68 68 69
89 91 93 94 96 98 98 100 99 98 97 99 98 96 95 93 91 89 87 86 85 85 85 85 85 84 84 84 83 81 80 80 79 77 76 76 76 76 77 77 77 78 80 80 79 78 77 78 78 79 79 80 79 78 78 78 77 75 74 73 72 72 72 71 71 71 73 73 72 72 72 73 72 72 73 73 73 73 73 72 71 69 68 67 67 68
85 87 88 89 90 93 95 97 97 96 96 99 100 98 96 95 93 91 89 87 86 85 85 86 86 86 85 84 84 82 80 80 80 78 75 74 75 75 75 75 76 76 78 78 78 77 77 76 76 77 77 79 78 78 78 77 76 74 73 71 71 71 71 70 70 70 71 72 72 72 72 72 72 72 72 72 72 71 70 69 68 67 66 65 66 67
81 83 85 86 85 87 90 94 95 94 94 97 100 100 99 97 95 93 92 90 88 86 84 84 84 85 85 85 83 82 80 79 79 78 75 73 73 73 73 73 73 74 75 76 75 76 75 75 74 74 75 76 77 77 77 77 75 74 72 71 70 70 70 69 68 69 69 71 71 71 71 71 71 71 71 71 70 69 68 66 65 64 64 64 64 65
77 79 82 84 83 83 86 90 92 93 93 95 98 101 102 101 99 97 96 94 92 90 87 85 84 84 85 85 85 84 81 78 77 76 74 72 71 71 70 71 71 71 73 73 73 73 74 74 74 73 73 74 75 75 75 75 74 73 71 70 70 70 69 68 67 67 68 69 70 70 69 69 69 69 69 69 68 66 64 63 62 62 63 63 63 64
75 77 79 81 81 81 83 87 90 91 93 95 97 100 102 103 102 102 101 99 97 96 93 91 88 85 84 84 85 85 83 79 76 74 71 70 70 70 69 69 70 70 70 71 71 71 72 73 74 74 73 73 73 74 73 73 73 71 70 70 70 69 68 67 66 66 67 68 69 69 68 68 67 67 67 67 65 63 62 61 60 61 62 62 61 62
Wind_Direction
330 326 322 322 327 327 321 318 317 318 320 322 324 324 324 324 323 323 322 320 319 319 318 319 320 321 322 323 323 323 324 325 326 327 329 330 331 331 332 334 335 336 336 337 337 336 337 337 337 337 337 336 336 335 334 333 333 332 332 332 333 334 334 335 337 338 339 341 341 341 342 342 343 344 345 345 346 347 348 348 348 348 347 345 343 341
320 320 323 327 326 321 317 315 316 318 320 322 323 323 323 323 322 322 321 320 319 319 319 319 321 322 322 322 323 323 324 326 327 329 330 330 331 332 333 334 335 336 336 336 336 336 336 336 337 337 336 336 335 334 334 333 333 333 333 333 334 334 335 336 337 338 340 341 341 342 342 342 343 344 344 345 346 347 348 348 348 347 346 345 343 341
319 323 326 324 320 316 314 314 315 317 319 321 322 322 322 323 322 321 320 318 318 319 320 319 320 322 321 321 322 324 325 327 328 329 330 330 331 332 333 334 335 335 335 335 335 335 336 336 336 336 336 335 335 334 334 334 333 333 333 334 334 335 335 336 337 338 340 341 341 342 342 342 343 343 344 345 346 346 347 347 347 347 346 345 344 342
323 322 320 318 317 315 314 314 315 317 319 320 321 321 322 322 321 320 318 318 318 319 320 320 320 321 322 321 323 325 326 327 328 329 329 330 332 332 333 333 334 334 334 334 334 335 335 335 335 335 335 334 334 334 334 334 334 334 334 334 334 335 335 336 337 338 339 341 341 342 342 342 342 343 344 345 345 346 346 347 347 347 347 345 344 342
316 314 314 315 315 314 313 314 316 319 320 320 320 321 321 320 319 318 317 317 318 318 320 322 321 320 322 322 322 324 325 327 328 328 329 331 332 332 332 332 332 333 333 333 333 334 335 335 335 334 334 334 334 334 334 334 334 334 334 334 335 335 336 336 337 338 339 340 341 341 342 342 342 343 344 344 345 345 346 346 347 347 346 345 344 342
310 310 312 313 314 314 316 317 319 320 320 320 320 320 319 318 317 317 317 317 318 318 318 321 321 319 320 323 323 325 326 326 328 329 329 330 331 331 331 331 331 332 332 332 333 334 334 334 334 333 333 333 334 334 334 334 334 334 334 334 335 335 336 337 337 338 339 340 341 341 341 342 342 342 343 344 345 345 345 346 346 346 346 345 344 342
312 312 313 314 315 316 318 319 320 320 319 319 318 317 317 317 317 316 317 317 317 318 318 319 321 319 319 323 325 325 326 326 327 328 329 329 330 330 330 330 330 331 331 332 332 333 333 333 333 332 333 333 334 334 334 334 334 334 334 334 335 335 336 337 337 338 339 339 340 341 341 341 342 342 343 344 344 345 345 345 346 346 345 344 343 342
313 314 314 314 316 317 317 318 318 317 317 317 316 316 316 316 317 317 317 317 317 318 318 318 319 320 320 323 325 325 325 326 326 327 328 328 329 329 329 329 330 330 330 331 331 332 332 332 332 332 332 333 334 334 334 333 333 333 334 334 335 335 336 336 337 337 338 339 340 340 341 341 342 342 342 343 344 344 344 345 345 345 345 344 343 342
313 313 313 315 315 316 316 316 316 315 315 315 315 315 316 316 317 317 317 317 317 317 317 316 317 320 321 321 324 324 324 325 325 325 326 327 327 328 328 328 329 329 329 330 331 331 331 331 332 332 332 333 333 333 333 333 333 333 333 334 334 335 336 336 337 337 338 339 339 340 340 341 341 342 342 343 343 344 344 344 345 345 345 344 343 342
312 313 314 315 315 315 315 314 314 314 314 314 315 315 315 316 315 316 316 316 316 315 315 315 316 319 321 320 321 322 322 323 323 324 325 326 326 326 327 327 327 328 328 329 330 330 331 331 332 332 332 332 332 332 332 332 332 333 333 334 334 335 335 336 336 337 337 338 339 339 340 340 341 341 341 342 343 343 343 343 344 345 344 344 343 342
312 313 313 313 313 313 313 313 312 313 313 313 314 314 315 315 315 315 315 315 316 315 315 316 316 317 319 319 319 320 321 322 323 323 324 325 325 325 326 326 327 327 328 329 329 330 330 331 331 332 332 331 331 331 331 332 332 332 333 333 334 334 335 335 336 336 337 338 338 339 339 340 340 341 341 342 342 342 342 343 344 344 344 343 342 342
311 312 312 311 311 311 311 312 312 312 312 312 313 313 313 313 314 315 315 316 317 317 316 316 316 316 317 318 319 320 321 322 323 323 324 324 324 325 325 326 326 327 328 328 329 329 330 331 331 331 331 330 330 330 331 331 332 332 333 333 334 334 335 335 335 336 336 337 338 338 339 339 340 340 341 341 342 342 342 342 343 344 344 343 342 341
310 310 310 310 310 310 310 311 311 311 311 311 311 311 310 311 312 313 315 315 317 317 316 315 315 314 315 317 319 320 321 322 323 323 323 324 324 325 324 324 325 326 327 328 328 329 330 331 330 330 330 329 329 330 330 331 332 332 332 333 333 334 334 334 335 335 336 336 337 338 338 339 339 340 340 340 341 341 341 341 343 344 344 343 342 341
309 309 309 310 310 310 309 309 310 310 310 309 309 309 309 309 309 310 310 311 313 314 314 314 314 313 314 316 318 319 320 322 323 322 322 323 323 323 323 324 324 325 326 327 328 329 330 330 329 329 329 329 329 329 330 331 331 331 332 332 333 333 334 334 334 335 335 336 336 337 337 338 339 339 339 340 340 340 340 341 342 344 344 343 342 341
308 308 308 309 309 309 309 308 308 308 308 308 307 308 308 308 308 309 309 309 310 312 313 314 315 313 313 315 318 319 321 321 322 321 321 321 321 322 323 323 324 325 326 327 328 328 329 329 328 328 329 328 329 329 329 330 330 331 331 332 332 333 333 334 334 334 335 335 335 336 337 337 338 338 338 339 339 339 339 340 342 343 343 343 342 341
308 308 307 308 308 308 308 307 307 307 307 307 307 307 307 307 308 308 309 309 310 311 313 314 315 313 312 315 318 318 320 320 320 320 320 320 320 322 323 323 324 324 326 327 327 328 328 328 328 328 328 328 328 329 329 329 330 330 331 331 332 332 333 333 333 334 334 334 334 335 336 337 337 338 337 337 338 338 339 340 341 343 343 343 342 341
307 307 306 306 307 307 307 307 307 307 306 306 306 305 305 306 306 307 308 308 309 311 312 313 315 313 311 315 317 317 319 319 319 319 319 320 321 322 323 323 323 324 325 326 327 327 327 327 327 328 328 328 328 328 328 329 329 329 330 330 331 331 332 332 332 333 333 333 333 334 335 336 336 336 336 337 337 338 338 339 341 342 343 342 342 341
305 306 305 305 305 305 306 306 307 306 306 306 306 305 305 304 305 305 306 307 307 309 310 312 315 313 311 315 316 316 319 319 318 319 319 320 321 321 323 323 324 324 324 326 326 326 326 327 327 327 327 327 327 327 327 328 328 329 329 330 330 331 331 331 331 331 332 332 333 333 334 335 335 335 336 336 337 337 338 339 340 341 342 342 342 342
303 305 305 305 304 304 304 304 305 305 305 306 306 305 305 304 304 304 305 306 306 308 309 311 316 315 312 315 316 316 319 320 319 320 320 320 320 321 323 324 324 324 324 325 325 325 326 326 327 327 327 326 326 326 326 327 327 328 328 329 329 329 330 330 330 330 331 331 332 332 333 334 334 335 335 335 336 337 337 338 340 341 342 342 342 342
302 303 304 304 303 304 303 303 303 304 304 305 305 305 304 303 304 305 306 307 307 309 310 311 318 317 313 315 316 316 320 321 320 320 319 319 320 321 323 324 323 323 323 324 325 325 325 326 326 326 326 325 325 325 325 326 326 327 327 328 328 328 329 329 329 329 330 330 331 331 332 333 333 334 334 335 335 336 336 338 339 340 341 342 342 342
301 302 303 303 303 303 303 302 302 303 303 304 304 304 303 304 305 305 307 308 309 312 311 312 319 319 314 316 317 318 321 322 320 319 318 319 320 321 322 323 323 322 323 323 324 324 325 325 326 326 325 324 324 324 324 325 325 326 326 327 327 327 328 328 328 328 329 330 330 330 331 332 333 333 334 334 335 335 336 337 338 340 341 342 342 342
300 301 302 303 303 303 303 303 303 303 304 305 305 305 304 306 306 306 307 309 310 312 311 312 319 319 316 316 317 318 321 321 318 317 317 319 320 320 322 323 323 322 322 323 323 324 324 324 324 324 323 323 323 323 323 324 325 325 325 326 326 326 327 327 327 328 328 329 329 329 330 331 332 332 333 334 334 335 336 337 338 339 341 342 342 342
299 300 301 302 302 303 303 303 303 304 305 306 306 306 306 307 307 307 308 309 311 312 311 313 317 318 316 316 316 318 320 319 317 316 317 318 319 320 321 322 322 321 322 322 323 323 323 323 323 322 322 322 321 322 322 323 323 324 324 325 325 325 326 326 327 327 327 328 328 328 329 330 331 331 332 333 334 334 335 336 337 339 340 341 342 341
298 299 299 300 301 302 303 303 304 305 306 307 307 307 308 308 307 307 308 309 311 311 311 314 315 316 317 315 315 318 319 317 316 315 316 317 318 319 320 321 321 321 321 321 321 322 322 322 321 321 320 320 320 321 321 322 322 323 323 324 324 324 325 325 326 326 326 327 327 328 328 329 330 331 332 333 333 334 335 336 337 338 340 341 342 342
298 298 298 298 299 300 301 302 303 304 305 306 307 307 307 306 305 306 307 308 309 310 312 314 313 316 318 315 316 318 317 315 315 315 315 317 317 318 318 319 320 319 319 319 320 320 320 320 319 319 319 319 319 319 320 321 322 322 322 322 323 323 324 324 325 325 325 326 326 327 328 328 330 331 332 332 333 334 335 335 336 338 340 341 342 342
298 299 299 299 299 300 300 300 301 301 303 304 304 304 304 304 304 305 306 307 308 309 312 313 313 316 318 315 316 317 314 314 314 314 314 315 315 316 316 317 318 317 317 318 318 318 318 318 317 317 317 317 318 318 319 320 321 321 321 321 322 322 323 323 324 324 324 325 325 326 327 328 329 330 331 332 333 334 335 335 336 337 339 341 342 342
298 299 300 300 301 302 302 302 302 303 304 304 304 304 303 303 304 305 306 308 309 310 313 313 313 316 316 314 315 314 311 312 312 311 312 312 313 313 314 315 316 315 315 316 316 316 316 316 316 316 316 316 317 318 318 319 319 319 320 320 321 321 322 322 323 323 324 324 325 326 327 328 329 330 331 331 332 333 334 335 336 337 339 340 342 342
298 299 300 300 301 302 303 303 303 304 305 305 305 304 304 304 305 306 308 309 309 310 313 313 313 315 314 313 313 311 309 310 310 309 309 310 311 311 312 313 314 313 313 314 314 314 314 314 314 314 315 315 316 317 317 318 318 318 319 319 320 321 321 322 322 322 323 324 325 326 327 328 329 330 330 331 332 333 334 335 336 336 338 339 341 342
299 299 300 300 302 302 302 303 303 304 305 305 304 303 303 304 305 307 308 308 308 310 312 312 312 313 313 312 311 309 309 309 309 308 309 310 310 310 311 312 312 311 312 312 313 313 313 313 313 313 314 314 315 316 316 316 317 317 318 318 319 320 321 321 321 322 322 323 325 326 327 328 329 329 330 331 332 333 334 335 335 336 337 339 341 342
300 300 300 301 302 302 302 302 303 304 304 305 304 302 303 304 306 307 307 307 307 309 310 310 310 311 311 310 309 308 308 308 308 309 309 309 309 309 310 311 311 311 311 311 312 312 311 312 312 312 313 313 314 315 315 315 315 316 317 318 319 320 320 320 320 321 322 323 325 326 327 328 329 329 330 331 332 333 333 334 335 336 337 338 340 342
300 300 300 301 302 302 301 301 302 303 304 304 302 301 302 304 305 305 305 305 306 308 308 308 308 309 309 307 307 307 307 307 308 309 309 308 308 308 309 310 310 310 310 310 310 310 310 310 311 311 312 313 313 313 314 314 315 316 317 318 319 319 319 319 320 321 322 324 325 326 327 328 328 329 329 330 332 332 333 334 334 335 336 338 340 342
299 300 300 300 301 301 300 300 301 303 304 303 301 300 301 303 303 303 303 304 305 306 306 306 307 307 306 305 305 306 306 306 307 308 307 306 306 308 309 309 308 308 308 309 309 309 309 309 310 311 311 312 312 312 313 314 315 316 317 318 318 318 318 319 320 321 323 324 325 326 327 328 328 328 329 330 331 332 332 333 334 335 336 337 339 342
299 299 299 300 300 300 300 300 301 302 302 302 301 300 301 301 301 301 302 303 304 304 304 305 305 305 305 304 304 304 304 305 306 306 305 305 305 306 307 307 307 307 307 308 308 308 309 309 310 310 310 311 311 311 313 314 315 316 317 317 317 317 318 319 320 321 323 324 325 325 326 327 328 328 329 331 331 331 332 332 333 334 335 336 339 342
299 300 300 300 300 300 300 300 300 301 302 302 301 300 300 300 300 301 302 303 303 303 303 304 304 304 304 304 304 303 304 305 305 305 304 304 305 305 305 305 305 306 306 307 308 308 308 309 309 309 309 309 310 311 313 315 315 316 316 316 317 317 318 320 321 322 323 324 324 325 326 327 327 328 329 330 331 331 331 332 333 334 335 336 339 342
299 299 299 299 299 300 300 300 300 301 302 301 300 299 299 299 300 301 302 303 302 302 303 304 304 304 304 304 303 303 304 304 304 304 303 303 303 304 304 304 304 305 306 306 307 307 307 307 307 307 308 309 310 312 314 314 314 314 315 316 317 318 319 320 321 321 322 323 324 324 325 326 327 327 328 330 330 330 330 331 333 334 335 336 339 342
298 298 298 299 299 299 299 300 301 301 301 300 298 298 298 299 300 302 303 302 301 301 303 304 304 303 302 302 301 301 302 302 302 302 301 301 302 302 303 304 304 305 305 305 305 305 305 306 306 307 307 309 310 312 314 314 314 314 315 316 317 318 319 320 321 321 322 323 323 324 325 326 326 327 328 329 329 329 330 331 333 334 335 337 339 341
298 298 298 298 298 298 298 299 300 300 301 299 297 297 297 299 300 301 301 300 299 300 301 302 301 300 300 299 299 299 299 300 301 301 301 301 302 302 302 303 303 303 303 304 304 305 305 306 306 307 308 310 311 313 314 314 314 314 315 316 317 319 320 321 321 321 321 323 323 324 324 325 326 326 327 328 328 329 330 332 334 335 336 337 338 340
298 298 298 298 298 298 299 299 300 300 300 298 296 296 297 299 299 299 299 299 299 299 300 300 299 299 298 298 298 298 298 299 300 300 300 300 300 301 301 302 302 302 303 303 304 305 306 306 307 308 309 311 312 313 313 314 314 315 315 316 318 320 320 320 320 320 321 322 323 323 324 325 325 326 327 327 328 329 330 332 334 335 336 337 338 339
300 300 300 300 300 300 300 301 301 301 300 297 296 296 297 298 298 297 299 300 301 300 299 299 299 299 298 298 298 298 298 298 298 298 298 297 298 298 299 299 300 301 302 303 304 305 306 307 308 308 309 310 311 312 313 313 314 315 316 317 319 320 320 320 320 320 321 321 322 323 323 324 324 325 326 326 327 328 330 332 334 336 336 337 337 338
302 302 302 302 303 303 302 303 304 303 302 300 300 300 300 299 299 300 301 302 301 300 299 299 298 298 297 297 296 296 296 296 296 295 295 295 296 297 298 299 299 300 302 303 304 305 306 307 307 308 309 310 311 312 313 313 314 315 316 317 319 320 320 320 319 320 320 321 322 322 323 324 324 325 325 325 326 328 329 332 335 337 337 337 336 336
304 305 305 305 305 305 305 306 306 305 303 303 304 303 302 301 301 302 304 304 302 300 299 299 299 298 298 297 297 296 296 297 297 297 297 297 298 299 300 301 301 302 303 303 304 305 306 307 307 308 309 310 311 312 312 313 314 315 316 317 318 319 320 319 319 319 320 321 322 322 322 323 323 323 324 324 325 327 329 332 335 337 337 336 335 335
306 307 307 307 307 307 308 308 307 305 305 306 306 305 304 304 303 304 304 303 301 300 300 300 300 300 300 300 300 299 299 299 300 301 301 301 301 302 302 303 303 303 303 304 304 305 305 306 307 307 308 309 310 311 312 313 313 314 315 316 317 318 319 319 318 319 319 320 321 321 321 322 322 322 323 324 325 326 328 332 336 337 337 336 334 333
308 308 308 308 308 308 309 308 307 307 308 308 306 305 305 305 305 305 305 303 302 301 302 302 302 302 302 302 302 302 302 302 302 303 303 304 304 304 304 304 304 304 304 304 304 305 305 306 306 307 308 308 309 310 311 312 313 314 314 315 316 317 318 318 318 319 319 320 321 321 321 321 321 322 322 323 324 326 328 332 335 337 337 335 333 332
307 308 308 308 309 309 309 308 308 309 310 309 308 307 308 308 307 307 306 305 304 303 303 304 303 303 303 302 302 302 302 302 302 303 303 303 304 304 305 305 305 305 306 305 305 306 306 306 307 307 308 308 309 310 311 312 312 312 313 313 315 317 318 318 318 318 318 319 320 320 320 320 321 321 322 323 324 326 329 332 334 336 336 334 332 331
305 306 307 308 308 308 308 308 308 310 310 309 309 309 309 310 309 308 307 307 306 306 305 305 305 304 304 303 303 302 302 302 302 302 302 303 304 305 306 306 307 307 307 306 307 307 307 307 307 308 308 309 309 310 310 310 311 311 312 313 314 316 317 317 318 317 317 318 319 320 319 320 320 321 321 322 324 326 329 331 333 335 335 333 331 330
303 303 304 305 306 306 307 307 308 309 309 308 309 309 310 310 310 310 309 309 308 308 307 307 306 306 305 305 305 305 305 304 304 305 305 306 306 307 307 308 308 308 308 308 308 308 308 308 308 309 309 308 309 309 309 309 309 310 311 312 314 315 315 316 317 317 317 318 319 319 319 319 320 321 321 322 324 327 329 331 332 333 333 331 330 329
300 300 301 303 304 304 305 305 306 308 308 308 309 309 310 310 311 311 310 310 310 310 309 309 308 308 307 307 306 306 306 306 306 306 306 307 307 307 308 308 308 308 308 308 308 308 308 308 308 308 308 308 307 308 308 308 308 309 311 312 313 313 313 314 316 316 317 318 318 319 319 319 320 320 321 323 325 327 329 330 331 332 331 330 329 329
298 299 300 301 303 304 305 305 306 308 308 309 309 310 310 311 312 312 312 312 312 311 311 310 310 309 308 307 306 306 306 305 305 306 306 306 306 306 307 307 307 307 306 307 307 308 308 308 308 308 307 307 307 307 307 307 308 309 310 311 312 311 312 313 314 315 316 316 317 318 318 319 320 321 322 323 326 327 329 330 331 330 330 329 329 329
299 300 300 301 303 304 304 305 306 308 308 309 310 310 311 312 312 312 312 312 312 312 311 310 310 309 308 308 307 306 306 306 305 306 306 306 306 306 306 306 306 306 306 306 307 308 309 309 308 308 307 306 306 306 307 307 308 309 310 311 310 310 311 312 313 314 314 315 316 317 317 318 319 321 322 323 325 327 328 329 330 329 328 328 328 328
300 301 301 302 303 304 305 305 306 308 309 309 310 310 311 312 312 313 313 313 313 313 313 312 311 311 311 310 309 308 308 307 307 306 307 307 306 306 306 306 306 305 306 306 307 308 309 309 309 308 308 307 307 306 307 307 308 309 310 310 309 309 310 311 312 313 313 313 314 315 316 317 319 321 322 323 324 326 327 328 329 328 327 327 327 327
302 302 303 303 305 306 306 307 307 308 309 309 309 310 311 312 313 313 313 314 314 314 314 314 314 313 312 311 310 310 309 309 308 307 308 308 307 307 306 306 306 305 306 306 307 308 309 309 309 309 309 308 308 308 308 308 308 308 308 308 307 308 309 310 311 312 312 312 313 314 316 317 319 320 321 322 323 325 326 327 328 327 326 326 326 326